Find CUTE

NORAD ID: 49263 Int'l Des: 2021-088 Owner: UCO Country: US operational
LEOCIRCULARRETROGRADE

Live Position

Loading 3D Globe...

About CUTE

Description loading...

Upcoming Passes

Passes for default location (London). Set your location on the main map for personalized predictions.

Altitude History

Loading altitude history...

Two-Line Element Set

1 49263U 21088D 26106.22698882 .00057607 00000-0 42207-3 0 9996
2 49263 97.4202 200.6909 0003101 192.8273 167.2912 15.73006353252766
Epoch: Apr 16, 2026 • Age: 11 hours

Current Status

Altitude 350.7 km
Velocity 7.70 km/s
Sub-Earth Point 13.83°N, 74.4°W
Launch Date Sep 27, 2021
Age 4.5 years
Type other

Technical Details

Classification Payload
Mass 10.00 kg
Dry Mass 10.00 kg
Total Mass 10.00 kg
Length 0.30 m
Diameter 0.20 m
Span 1.00 m
Shape Box + 2 pan
Manufacturer UCO
Bus Type Cubesat 6U
Phase Status In Orbit
Owner/State UCO/US

Most Searched